"Pseudo-MPEC" for ST26F41

Created 2026 Jun 17 18:35:08 UT using Find_Orb

Click here for an explanation of pseudo-MPECs

 
 Astrometry: 
     ST26F41* C2026 06 14.37438715 19 06.094+01 51 58.20   ~6EFo 18.33GVNEOCPU68
     ST26F41  C2026 06 14.37772815 19 08.849+01 47 56.76   ~6EFo 18.33GVNEOCPU68
     ST26F41  C2026 06 14.38587015 19 15.690+01 38 04.17   ~6EG5 18.13GVNEOCPU74
     ST26F41  C2026 06 14.38687315 19 16.564+01 36 52.29   ~6EG5 18.13GVNEOCPU74
     ST26F41 KB2026 06 14.90558615 31 01.96 -10 24 10.5    ~6EMZ 18.3 GXNEOCPI93
     ST26F41 KB2026 06 14.90684515 31 03.25 -10 26 08.4    ~6EMZ 18.2 GXNEOCPI93
     ST26F41 KB2026 06 14.92118015 31 18.74 -10 48 35.0    ~6EMZ 18.2 GXNEOCPI93
     ST26F41 KB2026 06 14.92268715 31 20.31 -10 50 58.4    ~6EMZ 18.4 GXNEOCPI93
     ST26F41 0B2026 06 14.96484515 31 40.344-11 34 52.83   ~6F65       WNEOCPM21
     ST26F41 0B2026 06 14.97080315 31 46.788-11 44 19.00   ~6F65 18.5 GWNEOCPM21
     ST26F41 0B2026 06 14.97434115 32 09.159-12 12 49.55   ~6F0o 18.1 GWNEOCP204
     ST26F41 0B2026 06 14.97800015 32 13.468-12 18 39.78   ~6F0o       WNEOCP204
     ST26F41 0B2026 06 14.98167015 32 17.796-12 24 31.02   ~6F0o       WNEOCP204
     ST26F41 0C2026 06 15.20417315 39 13.187-18 34 36.33   ~6GFZ 19.28iUNEOCPI41
     ST26F41 0C2026 06 15.20452115 39 13.638-18 35 11.99   ~6GFZ 19.28iUNEOCPI41
     ST26F41 KB2026 06 15.53573615 49 45.454-28 32 24.68   ~6FDo 18.5 GWNEOCP900
     ST26F41 KB2026 06 15.54079315 49 53.762-28 41 48.88   ~6FDo 17.0 GWNEOCP900
     ST26F41 KB2026 06 15.54584915 50 02.172-28 51 11.16   ~6FDo 18.1 GWNEOCP900
     ST26F41 KB2026 06 16.03930116 11 57.176-43 45 36.02   ~6G1Z 18.6 VZNEOCPY05
     ST26F41 KB2026 06 16.04237416 12 04.738-43 51 07.56   ~6G1Z 18.8 VZNEOCPY05
     ST26F41 KB2026 06 16.04541016 12 12.198-43 56 34.50   ~6G1Z 18.1 VZNEOCPY05

Station data:
(204) Schiaparelli Observatory  (N45.868292 E8.769720)  Italy.  Observer L.
   Buzzi. 0.84-m f/3.5 reflector + CCD.
(900) Moriyama  (N35.049753 E135.989940)  Japan.  Observer Y. Ikari. 0.26-m
   f/7.0 reflector + CCD.
(I41) Palomar Mountain--ZTF  (N33.357336 W116.859780)  US/California.
   Observers B. T. Bolin, Z. T. F. Collaboration. Measurers B. T. Bolin,
   Z.-Y. Lin, F. J. Masci. 1.2-m f/2.4 Schmidt.
(I93) St Pardon de Conques  (N44.558670 W0.202960)  France.  Observers F.
   Losse, W. D'Anna. Measurer F. Losse. 0.40-m f/3.7 reflector + CCD.
(M21) Schiaparelli Southern Observatory, Hakos  (S23.236549 E16.361440)
   Namibia.  Observers A. Aletti, F. Bellini, L. Buzzi, G. Galli. Measurer L.
   Buzzi. 0.36-m f/8.4 reflector + CCD.
(U68) JPL SynTrack Robotic Telescope, Auberry  (N37.070387 W119.412990)
   US/California.  Observers N. Saini, C. Zhai, R. Trahan, M. Zhan, M. Shao.
   0.28-m f/2.2 Schmidt + CCD.
(U74) JPL SynTrack Robotic Telescope 2, Auberry  (N37.070341 W119.412800)
   US/California.  Observers N. Saini, C. Zhai, R. Trahan, M. Zhan, M. Shao.
   0.36-m f/2.2 Schmidt.
(Y05) SONEAR Wykrota-CEAMIG, Serra da Piedade  (S19.824251 W43.690000)
   Brazil.  Observer C. Jacques. 0.45-m f/2.9 reflector + CMO.

Orbital elements:  ST26F41
   Perihelion 2026 Jun 16.688442 +/- 0.000785 TT = 16:31:21.3 (JD 2461208.188442)
Epoch 2026 Jun 16.0 TT = JDT 2461207.5   Earth MOID: 0.0058   Ma: 0.0603
M 359.564652116 +/- 0.00050         (J2000 ecliptic)             AutoNEOCP
n   0.632367040 +/- 0.000149        Peri.  181.510065 +/- 0.0008
a   1.344280499 +/- 0.000212        Node    83.663924 +/- 0.00007
e   0.24014186 +/- 0.000118         Incl.    9.163801 +/- 0.0032
P   1.559/569.279d         H 28.06  G  0.15   U  6.8
q 1.021462468 +/- 2.26e-6    Q 1.667098530 +/- 0.000421
From 21 observations 2026 June 14-16 (40.1 hr); mean residual 0".52
Residuals in arcseconds: 
260614 U68  .15-  .10+    260614 I93  .15-  .32-    260615 I41  .29+  .45+    
260614 U68  .25-  .53+    260614 M21  .11-  .57-    260615 900  .75-  1.4+    
260614 U74  .15-  .92-    260614 M21  .15+  .68-    260615 900  .74-  .40-    
260614 U74  .17+  .19+    260614 204  .03+  .14-    260615 900  .32+  .62-    
260614 I93  .28+  .85+    260614 204  .26+  .47-    260616 Y05  .38-  .44-    
260614 I93  .57-  .92+    260614 204  .19+  .38-    260616 Y05  .19+  .05-    
260614 I93  .69+  1.1+    260615 I41  .18+  .32-    260616 Y05  .50+  .38+    

Ephemerides (geocentric):
Date (UTC) HH   RA             Dec           delta  r     elong  mag " sig PA
---- --------  ------------   ------------  ------ ------ -----  --- --------
2026 06 17 19  19 44 58.926   -75 58 12.72  .00953 1.0215 125.2 20.0 1.33 125
2026 06 17 20  19 53 42.853   -76 11 10.21  .00964 1.0215 124.8 20.0 1.36 123
2026 06 17 21  20 02 29.934   -76 22 40.85  .00975 1.0215 124.3 20.1 1.39 120
2026 06 17 22  20 11 18.636   -76 32 46.92  .00987 1.0215 123.9 20.1 1.42 118
2026 06 17 23  20 20 07.398   -76 41 30.95  .00998 1.0215 123.4 20.1 1.45 116
2026 06 18 00  20 28 54.656   -76 48 55.70  .01009 1.0215 123.0 20.2 1.49 113
2026 06 18 01  20 37 38.873   -76 55 04.15  .01021 1.0215 122.5 20.2 1.52 111
2026 06 18 02  20 46 18.567   -76 59 59.45  .01032 1.0215 122.1 20.2 1.55 109
2026 06 18 03  20 54 52.330   -77 03 44.91  .01044 1.0215 121.7 20.3 1.57 107
2026 06 18 04  21 03 18.853   -77 06 24.00  .01055 1.0215 121.3 20.3 1.60 105
2026 06 18 05  21 11 36.943   -77 08 00.24  .01067 1.0215 120.9 20.4 1.63 102
2026 06 18 06  21 19 45.532   -77 08 37.23  .01079 1.0215 120.6 20.4 1.66 100
2026 06 18 07  21 27 43.691   -77 08 18.60  .01091 1.0215 120.2 20.4 1.69  98
2026 06 18 08  21 35 30.629   -77 07 07.95  .01102 1.0215 119.8 20.5 1.71  96
2026 06 18 09  21 43 05.694   -77 05 08.85  .01114 1.0215 119.5 20.5 1.74  94
2026 06 18 10  21 50 28.373   -77 02 24.80  .01126 1.0215 119.1 20.5 1.77  92
2026 06 18 11  21 57 38.282   -76 58 59.22  .01139 1.0215 118.8 20.6 1.79  91
2026 06 18 12  22 04 35.159   -76 54 55.41  .01151 1.0215 118.4 20.6 1.82  89
2026 06 18 13  22 11 18.853   -76 50 16.53  .01163 1.0215 118.1 20.6 1.84  87
2026 06 18 14  22 17 49.313   -76 45 05.63  .01175 1.0215 117.8 20.7 1.87  85
2026 06 18 15  22 24 06.578   -76 39 25.59  .01187 1.0215 117.5 20.7 1.89  84
2026 06 18 16  22 30 10.763   -76 33 19.13  .01200 1.0216 117.2 20.7 1.91  82
2026 06 18 17  22 36 02.049   -76 26 48.82  .01212 1.0216 116.9 20.8 1.93  81
2026 06 18 18  22 41 40.672   -76 19 57.09  .01224 1.0216 116.6 20.8 1.96  79
2026 06 18 19  22 47 06.913   -76 12 46.19  .01237 1.0216 116.3 20.8 1.98  78
2026 06 18 20  22 52 21.090   -76 05 18.22  .01249 1.0216 116.0 20.8 2.00  76
2026 06 18 21  22 57 23.545   -75 57 35.14  .01262 1.0216 115.7 20.9 2.02  75
2026 06 18 22  23 02 14.644   -75 49 38.75  .01275 1.0216 115.5 20.9 2.04  74
2026 06 18 23  23 06 54.766   -75 41 30.74  .01287 1.0216 115.2 20.9 2.06  73
2026 06 19 00  23 11 24.298   -75 33 12.65  .01300 1.0216 114.9 21.0 2.08  72
2026 06 19 01  23 15 43.631   -75 24 45.90  .01313 1.0216 114.7 21.0 2.10  70
2026 06 19 02  23 19 53.158   -75 16 11.79  .01325 1.0216 114.4 21.0 2.12  69
2026 06 19 03  23 23 53.267   -75 07 31.54  .01338 1.0216 114.2 21.0 2.14  68
2026 06 19 04  23 27 44.340   -74 58 46.22  .01351 1.0216 114.0 21.1 2.16  67
2026 06 19 05  23 31 26.753   -74 49 56.85  .01364 1.0216 113.7 21.1 2.18  66
2026 06 19 06  23 35 00.872   -74 41 04.34  .01377 1.0216 113.5 21.1 2.20  65
2026 06 19 07  23 38 27.052   -74 32 09.53  .01390 1.0216 113.3 21.2 2.22  65
2026 06 19 08  23 41 45.638   -74 23 13.17  .01403 1.0216 113.1 21.2 2.23  64
2026 06 19 09  23 44 56.961   -74 14 15.95  .01415 1.0216 112.8 21.2 2.25  63
2026 06 19 10  23 48 01.341   -74 05 18.50  .01428 1.0217 112.6 21.2 2.27  62
2026 06 19 11  23 50 59.085   -73 56 21.38  .01441 1.0217 112.4 21.3 2.28  61
2026 06 19 12  23 53 50.486   -73 47 25.12  .01455 1.0217 112.2 21.3 2.30  61
2026 06 19 13  23 56 35.826   -73 38 30.16  .01468 1.0217 112.0 21.3 2.32  60
2026 06 19 14  23 59 15.375   -73 29 36.93  .01481 1.0217 111.8 21.3 2.33  59
2026 06 19 15  00 01 49.389   -73 20 45.81  .01494 1.0217 111.6 21.4 2.35  59
2026 06 19 16  00 04 18.114   -73 11 57.13  .01507 1.0217 111.4 21.4 2.36  58
2026 06 19 17  00 06 41.782   -73 03 11.19  .01520 1.0217 111.3 21.4 2.38  57
2026 06 19 18  00 09 00.617   -72 54 28.27  .01533 1.0217 111.1 21.4 2.39  57